Location: Bottens
(46.6171°N, 6.6605°E)
Time: 09:17:54
(UTC+00:00)

Cosmos 1825 - Pass Details

Date: 28 October 2021
Orbit: 501 x 504 km, 82.5° (Epoch: 28 November)

Event Time Altitude Azimuth Distance (km) Brightness Sun altitude
Rises 18:14:53 0° 350° (N) 2,609 5.9 -19.6°
Reaches altitude 10° 18:17:00 10° 350° (N) 1,720 5.0 -19.9°
Maximum altitude 18:20:47 86° 264° (W) 510 2.1 -20.6°
Enters shadow 18:23:06 22° 174° (S) 1,132 3.8 -21.0°
